This is the latest recevied weather packets stored in our database for station/object N7WSS. If no packets are shown the sender has not sent any weather packets the latest 10 day(s).
| Time | Temp. | Humidity | Pressure | Rain* | Wind** | Luminosity | Snow |
|---|---|---|---|---|---|---|---|
| 1787784653 | 42.22° C | 21% | 1010.8 hPa | 0 mm | - | - | - |
| 1787784351 | 42.78° C | 20% | 1010.8 hPa | 0 mm | - | - | - |
| 1787784047 | 42.22° C | 21% | 1011.1 hPa | 0 mm | - | - | - |
| 1787783743 | 41.67° C | 19% | 1010.9 hPa | 0 mm | - | - | - |
| 1787783442 | 41.67° C | 19% | 1010.9 hPa | 0 mm | - | - | - |
| 1787783138 | 42.22° C | 19% | 1010.9 hPa | 0 mm | - | - | - |
| 1787782834 | 42.22° C | 19% | 1011.2 hPa | 0 mm | - | - | - |
| 1787782533 | 42.22° C | 18% | 1011.4 hPa | 0 mm | - | - | - |
| 1787782228 | 42.22° C | 19% | 1011.1 hPa | 0 mm | - | - | - |
| 1787781924 | 42.22° C | 19% | 1011.4 hPa | 0 mm | - | - | - |
| 1787781624 | 43.33° C | 19% | 1011.5 hPa | 0 mm | - | - | - |
| 1787781322 | 42.78° C | 19% | 1011.7 hPa | 0 mm | - | - | - |
| 1787781021 | 42.78° C | 19% | 1011.7 hPa | 0 mm | - | - | - |
| 1787780715 | 42.78° C | 19% | 1011.6 hPa | 0 mm | - | - | - |
| 1787780409 | 42.78° C | 20% | 1011.8 hPa | 0 mm | - | - | - |
| 1787780106 | 42.78° C | 19% | 1011.8 hPa | 0 mm | - | - | - |
| 1787779806 | 42.22° C | 20% | 1011.9 hPa | 0 mm | - | - | - |
| 1787779506 | 42.22° C | 21% | 1011.9 hPa | 0 mm | - | - | - |
| 1787779205 | 41.11° C | 21% | 1012 hPa | 0 mm | - | - | - |
| 1787778905 | 40.56° C | 21% | 1012.1 hPa | 0 mm | - | - | - |
| 1787778601 | 41.11° C | 21% | 1012 hPa | 0 mm | - | - | - |
| 1787778296 | 40.56° C | 21% | 1012.1 hPa | 0 mm | - | - | - |
| 1787777992 | 41.67° C | 21% | 1012.4 hPa | 0 mm | - | - | - |
| 1787777686 | 41.67° C | 20% | 1012.3 hPa | 0 mm | - | - | - |
| 1787777383 | 41.67° C | 20% | 1012.5 hPa | 0 mm | - | - | - |
* Rain latest hour (hover to see other rain measurements)
** Current wind speed in m/s (hover to see current wind gust speed)